Other Public Products
Issued by NWS Charleston, SC

Home | Current Version | Previous Version | Text Only | Print | Product List | Glossary On
Versions: 1 2 3 4 5 6 7 8 9 10 11 12 13 14 15 16 17 18 19 20 21 22 23 24 25 26 27 28 29 30 31 32 33 34 35 36 37 38 39 40 41 42 43 44 45 46 47 48 49 50
924
FPUS82 KCHS 210212
OPUCHS

TEST...KCHS/KSAV Gateway Observations...TEST
National Weather Service Charleston SC
900 PM EST MON FEB 20 2017

NOTE: "fair" indicates few or no clouds below 12,000 feet with no
significant weather and/or obstructions to visibility.

SCZ050-WAZ558-NCZ071-TXZ119-213-PAZ071-DCZ001-FLZ074-172-MI076-
NYZ176-178-MAZ016-IL014-TNZ027-NJZ106-GAZ044-MD014-210300-
...Gateway Observations for Charleston International...

CITY           SKY/WX    TMP DP  RH WIND       PRES   REMARKS
Chas Airport   CLOUDY    58  49  72 SE3       30.18S
Seattle        CLOUDY    45  43  93 SE6       29.71S
Charlotte      PTCLDY    63  41  44 SE6       30.19R
Dallas DFW     CLEAR     60  54  80 S7        29.91S
Dallas Love    CLEAR     61  55  81 S8        29.92S
Philladelphia  CLEAR     48  18  30 NE12G20   30.30R
Wash National  PTCLDY    53  33  46 CALM      30.28R
Baltimore      PTCLDY    51  27  39 NE9       30.27R
Miami          PTCLDY    71  61  70 NE6       30.10S
Detroit        CLOUDY    39  28  64 E9        30.18F WCI  33
Newark         PTCLDY    41  14  33 N12       30.33R
Laguardia      PTCLDY    44  14  29 NE15      30.33R
J F K          PTCLDY    43  11  27 NE18G26   30.34R
Boston Logan   CLEAR     37  15  40 NW9       30.33R WCI  30
Ft. Lauderdale PTCLDY    73  61  65 E9        30.10S
Chicago O`Hare CLOUDY    62  44  51 S17G26    29.94F
Chicago Midway CLOUDY    62  43  49 S10G23    29.95F
Houston Bush   CLOUDY    60  59  96 S5        29.99R
Houston Hobby  MOCLDY    60  59  96 NW3       29.96F
Nashville      CLOUDY    64  44  48 S6        30.07S
Atlanta        MOCLDY    65  45  48 SE5       30.14R

$$

GAZ044-118-TXZ119-213-NCZ071-DCZ001-MDZ014-506-PAZ021-071-NJZ106-
NYZ176-178-MAZ106-OHZ011-021-055-MIZ076-KYZ091-ILZ014-INZ047-
MNZ060-210300-
...Gateway Observations for Savannah International...

CITY           SKY/WX    TMP DP  RH WIND       PRES   REMARKS
Savannah Arpt  CLOUDY    61  52  72 CALM      30.17R
Atlanta        MOCLDY    65  45  48 SE5       30.14R
Charlotte      PTCLDY    63  41  44 SE6       30.19R
Dallas DFW     CLEAR     60  54  80 S7        29.91S
Houston Bush   CLOUDY    60  59  96 S5        29.99R
Wash National  PTCLDY    53  33  46 CALM      30.28R
Wash Dulles    PTCLDY    52  30  43 E7        30.26R
Baltimore      PTCLDY    51  27  39 NE9       30.27R
Philadelphia   CLEAR     48  18  30 NE12G20   30.30R
Newark         PTCLDY    41  14  33 N12       30.33R
Laguardia      PTCLDY    44  14  29 NE15      30.33R
J F K          PTCLDY    43  11  27 NE18G26   30.34R
Boston         CLEAR     37  15  40 NW9       30.33R WCI  30
Pittsburg      CLOUDY    50  34  54 CALM      30.20S
Akron          PTCLDY    50  31  48 E7        30.18F
Cleveland      MOCLDY    42  32  67 CALM      30.21S
Cincinnati     CLOUDY    57  44  62 SE7       30.10R
Columbus       CLOUDY    49  44  83 E7        30.14F
Detroit        CLOUDY    39  28  64 E9        30.18F WCI  33
Chicago O`Hare CLOUDY    62  44  51 S17G26    29.94F
Minneapolis    CLOUDY    55  51  86 SW14G21   29.69R
Indianapolis   MOCLDY    55  46  71 E8        30.07S

$$




USA.gov is the U.S. government's official web portal to all federal, state and local government web resources and services.